Location: Dittelbrunn
(50.0738°N, 10.2196°E)
Time: 15:02:00
(UTC+00:00)

USA 234 - Pass Details

Date: 18 September 2020
Orbit: 1102 x 1106 km, 123.0° (Epoch: 16 October)

Event Time Altitude Azimuth Distance (km) Brightness Sun altitude
Rises 21:59:08 0° 65° (ENE) 3,925 6.2 -36.1°
Reaches altitude 10° 22:01:39 10° 61° (ENE) 2,966 5.5 -36.3°
Enters shadow 22:03:22 19° 57° (ENE) 2,350 5.0 -36.4°
Exits shadow 22:06:55 50° 20° (NNE) 1,386 3.9 -36.6°
Maximum altitude 22:08:00 55° 347° (NNW) 1,308 3.8 -36.7°
Drops below altitude 10° 22:14:20 10° 271° (W) 2,964 5.7 -37.0°
Sets 22:16:52 0° 268° (W) 3,922 6.3 -37.1°
